GLOBALSTAR M001 1 25162U 98008A 08281.47040412 -.00000084 00000-0 10000-3 0 945 2 25162 052.0013 073.9500 0000927 052.0695 308.0244 12.37976005488649 GLOBALSTAR M004 1 25163U 98008B 08281.46074786 -.00000086 00000-0 10000-3 0 1286 2 25163 052.0013 289.2929 0003840 106.3153 253.8131 12.63145649491249 GLOBALSTAR M002 1 25164U 98008C 08281.77038419 -.00000071 00000-0 10000-3 0 210 2 25164 052.0017 044.5533 0001611 159.2959 200.7920 11.61421480475754 GLOBALSTAR M003 1 25165U 98008D 08280.50729148 -.00000086 00000-0 10000-3 0 1337 2 25165 051.9961 296.4304 0000677 151.2115 208.8773 12.62259360491012 GLOBALSTAR M014 1 25306U 98023A 08281.66581136 -.00000084 00000-0 10000-3 0 69 2 25306 051.9959 316.7311 0008862 324.3543 035.6715 12.38374258476160 GLOBALSTAR M006 1 25307U 98023B 08281.54908065 -.00000086 00000-0 10000-3 0 8410 2 25307 052.0012 339.3460 0001115 166.0421 194.0534 12.62265341482311 GLOBALSTAR M015 1 25308U 98023C 08280.57894352 -.00000086 00000-0 10000-3 0 8528 2 25308 051.9998 341.7625 0000790 040.0538 320.0386 12.62263388482192 GLOBALSTAR M008 1 25309U 98023D 08281.50923281 -.00000086 00000-0 10000-3 0 8257 2 25309 051.9971 338.7660 0001534 153.0799 207.0084 12.62258306482328 GLOBALSTAR M023 1 25621U 99004A 08281.19708818 -.00000086 00000-0 10000-3 0 8177 2 25621 052.0110 253.3076 0008859 338.5404 021.5081 12.62208296445806 GLOBALSTAR M040 1 25622U 99004B 08281.38560143 -.00000086 00000-0 10000-3 0 7984 2 25622 051.9917 248.8148 0001471 073.4048 286.6966 12.62261519445848 GLOBALSTAR M036 1 25623U 99004C 08280.87104629 -.00000086 +00000-0 +10000-3 0 07633 2 25623 052.0003 252.1200 0000576 078.5607 281.5323 12.62260473445799 GLOBALSTAR M038 1 25624U 99004D 08281.31389299 -.00000086 00000-0 10000-3 0 7632 2 25624 052.0019 206.5659 0001833 076.0998 284.0069 12.62262575446590 GLOBALSTAR M022 1 25649U 99012A 08281.72209556 -.00000084 00000-0 10000-3 0 7469 2 25649 052.0078 061.0627 0001948 105.3789 254.7279 12.38621940440838 GLOBALSTAR M041 1 25650U 99012B 08281.41403023 -.00000086 00000-0 10000-3 0 7701 2 25650 052.0092 026.7653 0000700 160.5253 199.5639 12.62268246441422 GLOBALSTAR M046 1 25651U 99012C 08281.38331271 -.00000086 00000-0 10000-3 0 7781 2 25651 052.0053 025.1024 0000718 140.6409 219.4513 12.62260987441401 GLOBALSTAR M037 1 25652U 99012D 08281.66038895 -.00000086 00000-0 10000-3 0 7532 2 25652 052.0053 025.5425 0001929 177.3773 182.7097 12.62259187441406 GLOBALSTAR M045 1 25676U 99019A 08280.80915962 -.00000086 +00000-0 +10000-3 0 08798 2 25676 051.9974 026.1885 0001038 027.6138 332.4779 12.62270118438899 GLOBALSTAR M019 1 25677U 99019B 08281.69222594 -.00000086 00000-0 10000-3 0 7754 2 25677 051.9927 068.2995 0000929 138.7812 221.3121 12.62257729438955 GLOBALSTAR M044 1 25678U 99019C 08281.64040385 -.00000086 00000-0 10000-3 0 7778 2 25678 052.0037 025.4557 0000970 161.3940 198.6955 12.62258283438349 GLOBALSTAR M042 1 25679U 99019D 08281.48495200 -.00000086 00000-0 10000-3 0 8570 2 25679 052.0009 115.5323 0001669 118.9203 241.1834 12.62267271437499 GLOBALSTAR M025 1 25770U 99031A 08280.88083466 -.00000086 +00000-0 +10000-3 0 07171 2 25770 051.9949 071.3160 0001177 137.9898 222.1056 12.62266557430174 GLOBALSTAR M049 1 25771U 99031B 08281.49442879 -.00000086 00000-0 10000-3 0 9214 2 25771 051.9943 069.0689 0001543 139.7166 220.3815 12.62259339430256 GLOBALSTAR M047 1 25772U 99031C 08281.55386894 -.00000086 00000-0 10000-3 0 7911 2 25772 051.9943 068.8569 0000884 143.0026 217.0911 12.62262736430267 GLOBALSTAR M052 1 25773U 99031D 08280.50761571 -.00000086 00000-0 10000-3 0 8028 2 25773 051.9909 070.9865 0001363 143.4559 216.6384 12.62266549430132 GLOBALSTAR M035 1 25851U 99037A 08280.84305220 -.00000066 +00000-0 +10000-3 0 06906 2 25851 052.0013 338.0052 0000718 146.0306 214.0573 11.34381996422411 GLOBALSTAR M032 1 25852U 99037B 08280.63364087 -.00000086 +00000-0 +10000-3 0 06957 2 25852 052.0004 117.2749 0001803 114.7653 245.3397 12.62260002426382 GLOBALSTAR M051 1 25853U 99037C 08281.76419386 -.00000086 00000-0 10000-3 0 7036 2 25853 051.9987 113.7756 0002046 066.7249 293.3834 12.62260013426524 GLOBALSTAR M030 1 25854U 99037D 08281.54632440 -.00000086 00000-0 10000-3 0 7086 2 25854 051.9996 114.7173 0000934 095.3948 264.7025 12.62258408426492 GLOBALSTAR M048 1 25872U 99041A 08281.14302250 -.00000086 00000-0 10000-3 0 7406 2 25872 052.0066 161.9280 0001484 098.0816 262.0212 12.62261577424566 GLOBALSTAR M026 1 25873U 99041B 08281.18528249 -.00000086 00000-0 10000-3 0 7241 2 25873 052.0068 162.0986 0001045 112.7055 247.3946 12.62263282424561 GLOBALSTAR M043 1 25874U 99041C 08281.20249701 -.00000086 00000-0 10000-3 0 7327 2 25874 052.0046 161.8800 0001110 062.3087 297.7892 12.62266333424567 GLOBALSTAR M028 1 25875U 99041D 08281.18274325 -.00000086 00000-0 10000-3 0 7066 2 25875 052.0039 161.6528 0001365 073.4308 286.6710 12.62261360424567 GLOBALSTAR M024 1 25883U 99043A 08281.19504156 -.00000086 00000-0 10000-3 0 7134 2 25883 052.0073 207.6333 0001578 075.8769 284.2266 12.62266926421685 GLOBALSTAR M027 1 25884U 99043B 08281.25442793 -.00000086 00000-0 10000-3 0 7073 2 25884 052.0072 207.3467 0000739 025.8591 334.2309 12.62266861421699 GLOBALSTAR M054 1 25885U 99043C 08281.59799335 -.00000084 00000-0 10000-3 0 6873 2 25885 052.0129 012.0688 0001618 067.0386 293.0637 12.38266486418751 GLOBALSTAR M053 1 25886U 99043D 08280.90994452 -.00000086 +00000-0 +10000-3 0 07160 2 25886 052.0084 208.4457 0000430 022.8766 337.2111 12.62256614421659 GLOBALSTAR M058 1 25907U 99049A 08281.20006732 -.00000086 00000-0 10000-3 0 7125 2 25907 051.9964 205.2451 0000989 073.3955 286.7014 12.62261293417943 GLOBALSTAR M050 1 25908U 99049B 08280.54083407 -.00000079 00000-0 10000-3 0 7072 2 25908 052.0010 292.0817 0009092 117.7590 242.4175 12.07302516416376 GLOBALSTAR M033 1 25909U 99049C 08280.26470676 -.00000086 +00000-0 +10000-3 0 07078 2 25909 051.9976 208.4626 0001287 072.4562 287.6445 12.62265948417807 GLOBALSTAR M055 1 25910U 99049D 08281.24715211 -.00000086 00000-0 10000-3 0 7256 2 25910 052.0000 250.4109 0000767 062.1948 297.8986 12.62258331417180 GLOBALSTAR M057 1 25943U 99058A 08280.51449964 -.00000086 +00000-0 +10000-3 0 03357 2 25943 052.0037 342.9263 0000956 198.1175 161.9659 12.62265857413798 GLOBALSTAR M059 1 25944U 99058B 08280.61859928 -.00000086 00000-0 10000-3 0 6919 2 25944 052.0082 342.8078 0000138 170.0072 190.0795 12.62260382413836 GLOBALSTAR M056 1 25945U 99058C 08281.50682712 -.00000086 00000-0 10000-3 0 299 2 25945 051.9993 293.9119 0000240 027.8629 332.2245 12.62262748414681 GLOBALSTAR M031 1 25946U 99058D 08281.43750211 -.00000086 00000-0 10000-3 0 7086 2 25946 051.9983 294.7224 0002848 039.0418 321.0645 12.62260953414691 GLOBALSTAR M039 1 25961U 99062A 08280.89076839 -.00000086 +00000-0 +10000-3 0 09941 2 25961 051.9931 115.5168 0001746 108.9397 251.1655 12.62256617410249 GLOBALSTAR M034 1 25962U 99062B 08280.52936381 -.00000086 +00000-0 +10000-3 0 09422 2 25962 051.9964 162.7789 0002257 081.9287 278.1837 12.62262380409417 GLOBALSTAR M029 1 25963U 99062C 08281.20752171 -.00000086 00000-0 10000-3 0 74 2 25963 051.9933 249.6763 0001273 050.9351 309.1622 12.62260492419999 GLOBALSTAR M061 1 25964U 99062D 08281.06466448 -.00000074 00000-0 10000-3 0 6622 2 25964 051.9767 121.9577 0006344 032.0873 328.0341 11.76679472403698 GLOBALSTAR M063 1 26081U 00008A 08281.54649675 -.00000086 00000-0 10000-3 0 7638 2 26081 051.9990 294.3569 0000600 073.1912 286.9019 12.62259971408077 GLOBALSTAR M062 1 26082U 00008B 08281.67000419 -.00000086 00000-0 10000-3 0 6695 2 26082 052.0053 070.3539 0000422 059.9996 300.0916 12.62267768399790 GLOBALSTAR M060 1 26083U 00008C 08280.69025213 -.00000086 +00000-0 +10000-3 0 07552 2 26083 052.0082 343.6685 0000905 138.4558 221.6376 12.62258696407174 GLOBALSTAR M064 1 26084U 00008D 08281.49793223 -.00000086 00000-0 10000-3 0 9748 2 26084 052.0074 295.7556 0000312 082.1746 277.9160 12.62264524426023 GLOBALSTAR M065 1 31571U 07020A 08280.75958435 -.00000100 00000-0 18693-4 0 4347 2 31571 051.9897 071.8236 0000686 169.9957 190.0916 12.62262613 63715 GLOBALSTAR M069 1 31573U 07020C 08280.50705504 -.00000086 00000-0 10000-3 0 2297 2 31573 051.9976 027.8533 0001070 093.9954 266.1021 12.62263417 64410 GLOBALSTAR M072 1 31574U 07020D 08281.48712047 -.00000068 00000-0 19848-3 0 4264 2 31574 052.0069 115.3946 0000938 099.0585 261.0396 12.62259524 63047 GLOBALSTAR M071 1 31576U 07020F 08280.46749092 -.00000086 00000-0 10000-3 0 2475 2 31576 052.0087 028.1569 0001923 132.2046 227.8931 12.62262941 64401